Weather History for Ravenna, OH

Change the Weather History Date:

Monday, November 25, 2013

  Actual Average (KCAK) Record (KCAK)
Temperature  
Mean Temperature 24 °F 38 °F  
Max Temperature 33 °F 45 °F 64 °F (1987)
Min Temperature 14 °F 31 °F 8 °F (1950)
Degree Days  
Heating Degree Days 42 27  
Month to date heating degree days 562  
Since 1 July heating degree days 1117  
Cooling Degree Days 0 0  
Month to date cooling degree days 0  
Year to date cooling degree days 652  
Moisture  
Dew Point 12 °F    
Average Humidity 60    
Maximum Humidity 86    
Minimum Humidity 37    
Precipitation  
Precipitation 0.00 in 0.11 in 1.83 in (2010)
Month to date precipitation 2.76  
Year to date precipitation 36.24  
Snow  
Snow 0.00 in 0.20 in - ()
Month to date snowfall 2.2  
Since 1 July snowfall 2.6  
Since 1 September snowfall 2.6  
Snow Depth -    
Sea Level Pressure  
Sea Level Pressure 30.28 in    
Wind  
Wind Speed 4 mph (SSW)    
Max Wind Speed 10 mph    
Max Gust Speed 17 mph    
Visibility 10 miles    
Events      
T = Trace of Precipitation, MM = Missing Value Source: NWS Daily Summary

Daily Weather History Graph

Daily Weather History Graph

Search for Another Location

Airport:

Trip Planner

Search our weather history database for the weather conditions in past years. The results will help you decide how hot, cold, wet, or windy it might be!

Date:

Astronomy

Nov. 25, 2013 Rise Set
Actual Time 7:24 AM EST 4:58 PM EST
Civil Twilight 6:54 AM EST 5:29 PM EST
Nautical Twilight 6:20 AM EST 6:03 PM EST
Astronomical Twilight 5:47 AM EST 6:36 PM EST
Moon No Moon Rise 12:39 PM EST (11/25)
Length of Visible Light 10h 34m
Length of Day
9h 34m
Waning Gibbous, 51% of the Moon is Illuminated
Nov 25
Waning Gibbous
Nov 25
Last Quarter
Dec 2
New
Dec 9
First Quarter
Dec 17
Full

Hourly Weather History & Observations

Time (EST) Temp. Windchill Dew Point Humidity Pressure Visibility Wind Dir Wind Speed Gust Speed Precip Events Conditions
12:14 AM 16.3 °F 10.8 °F 10.4 °F 77% 30.43 in 10.0 mi SW 3.5 mph - N/A   Clear
12:34 AM 16.7 °F 11.2 °F 10.6 °F 77% 30.43 in 10.0 mi SW 3.5 mph - N/A   Clear
12:55 AM 16.9 °F - 10.6 °F 76% 30.42 in 10.0 mi Calm Calm - N/A   Clear
1:14 AM 16.9 °F 11.5 °F 11.1 °F 78% 30.41 in 10.0 mi SW 3.5 mph - N/A   Clear
1:34 AM 16.9 °F 9.8 °F 11.3 °F 79% 30.41 in 10.0 mi SW 4.6 mph - N/A   Clear
1:54 AM 17.1 °F 11.7 °F 11.7 °F 79% 30.42 in 10.0 mi SW 3.5 mph - N/A   Clear
2:14 AM 16.7 °F - 11.3 °F 79% 30.42 in 10.0 mi Calm Calm - N/A   Clear
2:34 AM 16.7 °F 11.2 °F 11.8 °F 81% 30.42 in 10.0 mi SW 3.5 mph - N/A   Clear
2:55 AM 16.7 °F 11.2 °F 12.0 °F 82% 30.43 in 10.0 mi SW 3.5 mph - N/A   Clear
3:14 AM 16.5 °F - 11.8 °F 82% 30.43 in 10.0 mi Calm Calm - N/A   Clear
3:34 AM 16.2 °F 9.0 °F 11.3 °F 81% 30.42 in 10.0 mi SSW 4.6 mph - N/A   Clear
3:54 AM 16.2 °F - 11.3 °F 81% 30.41 in 10.0 mi Calm Calm - N/A   Clear
4:14 AM 15.8 °F - 11.1 °F 82% 30.41 in 10.0 mi Calm Calm - N/A   Clear
4:34 AM 14.7 °F - 11.1 °F 86% 30.40 in 10.0 mi Calm Calm - N/A   Clear
4:54 AM 14.9 °F - 11.1 °F 85% 30.40 in 10.0 mi Calm Calm - N/A   Clear
5:14 AM 15.4 °F - 11.3 °F 84% 30.40 in 10.0 mi Calm Calm - N/A   Clear
5:34 AM 15.8 °F - 11.1 °F 82% 30.39 in 10.0 mi Calm Calm - N/A   Clear
5:55 AM 16.5 °F 11.0 °F 10.9 °F 79% 30.39 in 10.0 mi South 3.5 mph - N/A   Clear
6:14 AM 16.5 °F 11.0 °F 10.8 °F 78% 30.39 in 10.0 mi South 3.5 mph - N/A   Clear
6:34 AM 16.7 °F 11.2 °F 10.6 °F 77% 30.38 in 10.0 mi South 3.5 mph - N/A   Clear
6:54 AM 16.7 °F 9.6 °F 10.6 °F 77% 30.38 in 10.0 mi South 4.6 mph - N/A   Clear
7:14 AM 16.7 °F - 10.6 °F 77% 30.38 in 10.0 mi Calm Calm - N/A   Clear
7:34 AM 16.3 °F - 10.2 °F 77% 30.37 in 10.0 mi Calm Calm - N/A   Clear
7:55 AM 17.2 °F 10.2 °F 10.2 °F 74% 30.37 in 10.0 mi South 4.6 mph - N/A   Clear
8:14 AM 18.3 °F 10.2 °F 10.2 °F 71% 30.36 in 10.0 mi SSW 5.8 mph - N/A   Clear
8:34 AM 19.2 °F 11.3 °F 10.0 °F 67% 30.36 in 10.0 mi SSW 5.8 mph - N/A   Clear
8:54 AM 19.8 °F 13.2 °F 10.0 °F 66% 30.35 in 10.0 mi SSW 4.6 mph - N/A   Clear
9:14 AM 21.2 °F 13.6 °F 9.5 °F 61% 30.35 in 10.0 mi SSW 5.8 mph - N/A   Clear
9:34 AM 22.3 °F 12.2 °F 9.5 °F 58% 30.34 in 10.0 mi SW 9.2 mph - N/A   Clear
9:54 AM 23.7 °F 14.7 °F 9.7 °F 55% 30.34 in 10.0 mi SSW 8.1 mph 16.1 mph N/A   Clear
10:14 AM 24.8 °F 16.1 °F 10.0 °F 54% 30.33 in 10.0 mi South 8.1 mph - N/A   Clear
10:34 AM 24.1 °F 14.4 °F 9.9 °F 55% 30.31 in 10.0 mi South 9.2 mph 17.3 mph N/A   Clear
10:54 AM 23.9 °F 15.8 °F 9.5 °F 54% 30.30 in 10.0 mi SSW 6.9 mph - N/A   Clear
11:14 AM 23.9 °F 15.8 °F 10.4 °F 56% 30.29 in 10.0 mi South 6.9 mph - N/A   Clear
11:34 AM 26.2 °F 22.1 °F 11.5 °F 54% 30.28 in 10.0 mi South 3.5 mph - N/A   Clear
11:54 AM 26.8 °F 18.5 °F 11.1 °F 52% 30.27 in 10.0 mi SSE 8.1 mph - N/A   Clear
12:14 PM 27.5 °F 20.2 °F 10.6 °F 49% 30.25 in 10.0 mi South 6.9 mph - N/A   Clear
12:34 PM 27.9 °F 22.6 °F 10.6 °F 48% 30.24 in 10.0 mi South 4.6 mph - N/A   Clear
12:54 PM 28.4 °F 21.2 °F 11.8 °F 50% 30.22 in 10.0 mi South 6.9 mph - N/A   Scattered Clouds
1:14 PM 30.0 °F 24.1 °F 12.2 °F 48% 30.22 in 10.0 mi South 5.8 mph - N/A   Clear
1:34 PM 30.0 °F 22.4 °F 10.4 °F 44% 30.21 in 10.0 mi South 8.1 mph - N/A   Clear
1:54 PM 30.4 °F 24.5 °F 9.0 °F 41% 30.19 in 10.0 mi South 5.8 mph - N/A   Scattered Clouds
2:14 PM 30.7 °F 22.0 °F 7.0 °F 37% 30.19 in 10.0 mi South 10.4 mph - N/A   Mostly Cloudy
2:34 PM 30.4 °F 24.5 °F 7.2 °F 38% 30.18 in 10.0 mi South 5.8 mph - N/A   Mostly Cloudy
2:54 PM 30.7 °F 26.0 °F 7.2 °F 37% 30.18 in 10.0 mi SSW 4.6 mph - N/A   Overcast
3:14 PM 30.6 °F 24.7 °F 7.9 °F 39% 30.18 in 10.0 mi SSW 5.8 mph - N/A   Overcast
3:34 PM 30.9 °F 25.2 °F 8.4 °F 39% 30.19 in 10.0 mi South 5.8 mph - N/A   Overcast
3:55 PM 30.7 °F 24.9 °F 9.3 °F 41% 30.17 in 10.0 mi South 5.8 mph - N/A   Overcast
4:14 PM 30.7 °F 24.1 °F 9.3 °F 41% 30.18 in 10.0 mi SSW 6.9 mph - N/A   Overcast
4:34 PM 30.7 °F 24.9 °F 9.9 °F 42% 30.18 in 10.0 mi SSW 5.8 mph - N/A   Overcast
4:54 PM 30.9 °F 24.3 °F 10.6 °F 43% 30.18 in 10.0 mi SSW 6.9 mph - N/A   Overcast
5:15 PM 30.9 °F 25.2 °F 10.9 °F 43% 30.18 in 10.0 mi SSW 5.8 mph - N/A   Overcast
5:34 PM 31.1 °F 25.4 °F 11.5 °F 44% 30.18 in 10.0 mi SW 5.8 mph - N/A   Overcast
5:54 PM 31.1 °F 25.4 °F 11.7 °F 45% 30.17 in 10.0 mi SSW 5.8 mph - N/A   Overcast
6:15 PM 31.5 °F 25.8 °F 12.2 °F 45% 30.18 in 10.0 mi SW 5.8 mph - N/A   Overcast
6:34 PM 31.6 °F 26.0 °F 12.7 °F 46% 30.18 in 10.0 mi SW 5.8 mph - N/A   Overcast
6:54 PM 31.6 °F 26.0 °F 13.1 °F 46% 30.18 in 10.0 mi SW 5.8 mph - N/A   Overcast
7:14 PM 32.0 °F 27.5 °F 13.8 °F 47% 30.18 in 10.0 mi WSW 4.6 mph - N/A   Overcast
7:34 PM 32.0 °F 28.7 °F 14.0 °F 48% 30.16 in 10.0 mi SW 3.5 mph - N/A   Overcast
7:54 PM 32.0 °F 26.4 °F 14.5 °F 49% 30.16 in 10.0 mi SW 5.8 mph - N/A   Overcast
8:15 PM 32.0 °F 28.7 °F 14.7 °F 49% 30.16 in 10.0 mi SSW 3.5 mph - N/A   Overcast
8:34 PM 32.0 °F 27.5 °F 14.9 °F 49% 30.14 in 10.0 mi SW 4.6 mph - N/A   Overcast
8:54 PM 32.0 °F 27.5 °F 15.1 °F 50% 30.15 in 10.0 mi SSW 4.6 mph - N/A   Overcast
9:14 PM 32.2 °F 26.7 °F 15.6 °F 51% 30.15 in 10.0 mi SW 5.8 mph - N/A   Overcast
9:34 PM 32.4 °F 26.9 °F 15.6 °F 50% 30.15 in 10.0 mi SW 5.8 mph - N/A   Overcast
9:54 PM 32.4 °F 29.1 °F 15.8 °F 51% 30.15 in 10.0 mi SSW 3.5 mph - N/A   Overcast
10:14 PM 32.5 °F 28.1 °F 16.0 °F 51% 30.15 in 10.0 mi SSW 4.6 mph - N/A   Overcast
10:34 PM 32.9 °F 28.5 °F 16.0 °F 50% 30.16 in 10.0 mi SSW 4.6 mph - N/A   Overcast
10:55 PM 33.1 °F 26.9 °F 16.2 °F 50% 30.15 in 10.0 mi SW 6.9 mph - N/A   Overcast
11:14 PM 32.9 °F 25.3 °F 18.5 °F 55% 30.15 in 10.0 mi SSW 9.2 mph - N/A   Overcast
11:34 PM 32.0 °F 25.6 °F 22.1 °F 67% 30.16 in 10.0 mi SSW 6.9 mph - N/A   Overcast
11:54 PM 31.3 °F 23.9 °F 25.5 °F 79% 30.15 in 10.0 mi SW 8.1 mph - N/A   Overcast